Tracking 27122 objects as of 24-Mar-2023
HD Live streaming from Space Station
objects crossing your sky now

ONEWEB-0195

Track ONEWEB-0195 now!
10-day predictions
ONEWEB-0195 is classified as:


NORAD ID: 48240
Int'l Code: 2021-031AG
Perigee: 1,211.0 km
Apogee: 1,214.8 km
Inclination: 87.9 °
Period: 109.5 minutes
Semi major axis: 7583 km
RCS: Unknown
Launch date: April 25, 2021
Source: United Kingdom (UK)
Launch site: VOSTOCHNY COSMODROME (VOSTO)
Your satellite tracking list
Your tracking list is empty




NASA's NSSDC Master Catalog

Two Line Element Set (TLE):
1 48240U 21031AG  23082.71071886 -.00000216  00000-0 -61703-3 0  9999
2 48240  87.9120 164.7388 0002499 109.1031 251.0369 13.14502409 92931
Source of the keplerian elements: AFSPC